Houston, TX

11:52 AM CST on December 07, 2016 (GMT -0600)
Hobby

Weather History for KHOU - May, 2013

Change the Weather History Date:

Wednesday, May 15, 2013

  Actual Average Record
Temperature  
Mean Temperature 73 °F 77 °F  
Max Temperature 80 °F 86 °F 92 °F (2003)
Min Temperature 66 °F 68 °F 49 °F (1890)
Cooling Degree Days 8 12  
Month to date cooling degree days 77 152  
Year to date cooling degree days 302 433  
Growing Degree Days 23 (Base 50)    
Moisture  
Dew Point 67 °F    
Average Humidity 79    
Maximum Humidity 93    
Minimum Humidity 64    
Precipitation  
Precipitation 0.07 in 0.18 in 4.64 in (1970)
Month to date precipitation 0.91 2.47  
Year to date precipitation 9.21 15.77  
Sea Level Pressure  
Sea Level Pressure 30.06 in    
Wind  
Wind Speed 7 mph (SSE)    
Max Wind Speed 22 mph    
Max Gust Speed 26 mph    
Visibility 10 miles    
Events Rain    
T = Trace of Precipitation, MM = Missing Value Source: NWS Daily Summary

Daily Weather History Graph

Daily Weather History Graph

Search for Another Location

Airport or City:

Trip Planner

Search our weather history database for the weather conditions in past years. The results will help you decide how hot, cold, wet, or windy it might be!

Date:

Astronomy

May. 15, 2013 Rise Set
Actual Time 6:28 AM CDT 8:07 PM CDT
Civil Twilight 6:02 AM CDT 8:33 PM CDT
Nautical Twilight 5:30 AM CDT 9:04 PM CDT
Astronomical Twilight 4:58 AM CDT 9:37 PM CDT
Moon 11:00 AM CDT (5/15) No Moon Set
Length of Visible Light 14h 31m
Length of Day
13h 38m
Waxing Crescent, 27% of the Moon is Illuminated
May 15
Waxing Crescent
May 17
First Quarter
May 24
Full
May 31
Last Quarter
Jun 8
New

Hourly Weather History & Observations

Time (CDT) Temp. Heat Index Dew Point Humidity Pressure Visibility Wind Dir Wind Speed Gust Speed Precip Events Conditions
12:53 AM 68.0 °F - 64.9 °F 90% 30.16 in 10.0 mi SSE 5.8 mph - N/A   Partly Cloudy
1:53 AM 68.0 °F - 64.9 °F 90% 30.14 in 10.0 mi South 4.6 mph - N/A   Scattered Clouds
2:53 AM 68.0 °F - 64.9 °F 90% 30.13 in 10.0 mi SSE 4.6 mph - N/A   Scattered Clouds
3:53 AM 66.9 °F - 64.0 °F 90% 30.11 in 10.0 mi SE 3.5 mph - N/A   Scattered Clouds
4:53 AM 66.9 °F - 64.9 °F 93% 30.10 in 10.0 mi Calm Calm - N/A   Clear
5:53 AM 66.9 °F - 64.0 °F 90% 30.12 in 10.0 mi SE 3.5 mph - N/A   Scattered Clouds
6:53 AM 66.9 °F - 66.0 °F 97% 30.13 in 10.0 mi SSE 3.5 mph - N/A   Mostly Cloudy
7:53 AM 70.0 °F - 66.9 °F 90% 30.12 in 10.0 mi SSE 8.1 mph - N/A   Overcast
8:53 AM 71.1 °F - 66.9 °F 87% 30.14 in 10.0 mi SSE 8.1 mph - 0.00 in Rain Light Rain
9:53 AM 71.1 °F - 68.0 °F 90% 30.14 in 8.0 mi SSE 5.8 mph - 0.02 in Rain Light Rain
10:53 AM 71.1 °F - 69.1 °F 93% 30.11 in 5.0 mi SSE 10.4 mph - 0.08 in Rain Rain
11:10 AM 71.6 °F - 69.8 °F 94% 30.09 in 7.0 mi SSE 9.2 mph - 0.02 in Rain Light Rain
11:53 AM 72.0 °F - 70.0 °F 93% 30.10 in 10.0 mi SE 10.4 mph - 0.03 in   Overcast
12:10 PM 71.6 °F - 68.0 °F 88% 30.08 in 9.0 mi SSE 10.4 mph 18.4 mph 0.00 in   Overcast
12:53 PM 73.0 °F - 69.1 °F 87% 30.09 in 10.0 mi SSE 12.7 mph - 0.00 in   Mostly Cloudy
1:53 PM 75.9 °F - 68.0 °F 76% 30.06 in 10.0 mi SE 13.8 mph 23.0 mph N/A   Scattered Clouds
2:13 PM 77.0 °F - 68.0 °F 74% 30.04 in 10.0 mi SE 12.7 mph 18.4 mph N/A   Mostly Cloudy
2:44 PM 77.0 °F - 66.2 °F 69% 30.03 in 10.0 mi SSE 9.2 mph - N/A   Overcast
2:53 PM 77.0 °F - 66.9 °F 71% 30.04 in 10.0 mi SSE 8.1 mph - N/A   Overcast
3:53 PM 80.1 °F 82.3 °F 66.9 °F 64% 30.01 in 10.0 mi SSE 12.7 mph 18.4 mph N/A   Mostly Cloudy
4:53 PM 77.0 °F - 64.0 °F 64% 29.99 in 10.0 mi South 12.7 mph 20.7 mph N/A   Mostly Cloudy
5:53 PM 75.9 °F - 64.0 °F 67% 30.00 in 10.0 mi South 10.4 mph - N/A   Mostly Cloudy
6:53 PM 75.0 °F - 64.9 °F 71% 29.98 in 10.0 mi SSE 10.4 mph 18.4 mph N/A   Mostly Cloudy
7:53 PM 73.9 °F - 64.9 °F 73% 29.96 in 10.0 mi SSE 9.2 mph - N/A   Mostly Cloudy
8:53 PM 72.0 °F - 66.0 °F 81% 29.96 in 10.0 mi SSE 9.2 mph - N/A   Scattered Clouds
9:53 PM 72.0 °F - 66.9 °F 84% 29.96 in 10.0 mi SSE 8.1 mph - N/A   Mostly Cloudy
10:24 PM 71.6 °F - 66.2 °F 83% 29.95 in 10.0 mi SSE 10.4 mph - N/A   Mostly Cloudy
10:53 PM 71.1 °F - 66.9 °F 87% 29.96 in 10.0 mi SSE 11.5 mph - N/A   Mostly Cloudy
11:53 PM 72.0 °F - 68.0 °F 87% 29.96 in 10.0 mi South 6.9 mph - N/A   Mostly Cloudy